Location: Newark
(44.2886°N, 4.8431°E)
Time: 14:57:35
(UTC+00:00)

ZACube-1 - Pass Details

Date: 05 December 2020
Orbit: 584 x 665 km, 97.6° (Epoch: 14 January)

Event Time Altitude Azimuth Distance (km) Brightness Sun altitude
Rises 05:12:56 0° 9° (N) 2,837 ? -18.6°
Reaches altitude 10° 05:15:05 10° 7° (N) 1,938 ? -18.3°
Maximum altitude 05:19:16 68° 285° (WNW) 653 ? -17.5°
Drops below altitude 10° 05:23:29 10° 203° (SSW) 1,964 ? -16.8°
Sets 05:25:42 0° 201° (SSW) 2,877 ? -16.4°
